CZ-4C DEB, 43404

Orbit data source: Space-Track

CZ-4C DEB, 43404 is space debris in LEO originally from a launch on Sun, 25 Nov 2012 UTC launched from the Jiuquan Satellite Launch Center, China (JSC). Debris objects in space refer to the collection of defunct objects orbiting the Earth. Examples of debris include non-operational satellites, rocket bodies, and fragments generated from explosions, collisions, or faulty payload assembly.

Loading next visibility...
Identifier
43404, 2012-066G
Orbit
LEO
Country
Flag of CNCN / PRC
Related business
Manufacturer
SAST
Mission
Spacecraft
Bus & Motor
Unknown
Mass
Unknown
Launch date (UTC)
2012-11-25 (14 years ago)
Launch vehicle
Unknown
Launch site
Jiuquan Satellite Launch Center, China (JSC)
Object type
Payload
Rocket body
Debris
Shape & HBR
Unknown shape, 0.1 m
Radar Cross Section
Small (<0.1 m²)

Expand to show TLE details & history
Last TLE update: 4 days ago

TLE from 4 days ago
0 CZ-4C DEB
1 43404U 12066G   26169.08194886 -.00000053  00000-0  84872-4 0  9990
2 43404  63.3592 342.3134 0170812 345.6333  13.9842 12.93172392593497
Epoch: 2026-06-18T01:58Z
TLE epoch observation values (Epoch: 2026-06-18T01:58:00.381Z)
Latitude
-0.00004°
Longitude
46.4814°
Altitude
1,163.717 km
Speed
7.332 km/s
True Right ascension
22h 49m 15s
True Declination
0° 00' 00"
Sunlit
Object was in daylight at epoch
Visualization orbit readout
Latitude
Unknown
Longitude
Unknown
Altitude
Unknown
Speed
Unknown
Apparent Right ascension
Unknown
Apparent Declination
Unknown
Sunlit
N/A
Visualization observer readout
Local Sidereal Time
23:08:38
Azimuth
Unknown
Elevation
Unknown
Doppler factor
Unknown
Orbital elements
Apogee altitude
1,418.767 km
Perigee altitude
1,156.88 km
Semi-major axis
7,665.96 km
Eccentricity
0.01708
Inclination
63.3592°
RAAN
342.3134°
Arg. of periapsis
345.6333°
True anomaly
14.4672°
Mean anomaly
13.9842°
Eccentric anomaly
14.22469°
Mean motion
3.23365 °/min
Orbital period
111.33 mins
BSTAR
0.000084872
Loading maneuver chart data...
Computing Atmospheric mass density...
Loading historical data...
Loading historical data...
Loading historical data...
Loading historical data...
Loading historical data...
Loading historical data...
Loading historical data...

Documentation

Showing up to 5 results
|